Location: Fairview
(40.8165°N, 122.7667°W)
Time: 16:19:12
(UTC+00:00)

USA 81 - Visible Passes

Search period start: 08 September 2024 00:00
Search period end: 18 September 2024 00:00
Orbit: 784 x 786 km, 85.0° (Epoch: 07 September)

Date Brightness Start Highest point End Pass type
(mag) Time Alt. Az. Time Alt. Az. Time Alt. Az.
08 Sep 6.9 03:37:22 10° NW 03:41:10 20° W 03:44:57 10° SW visible
09 Sep 6.0 03:05:17 10° NNW 03:10:01 35° W 03:14:44 10° SSW visible
11 Sep 7.5 03:45:59 10° WNW 03:47:41 12° WNW 03:49:23 10° W visible
11 Sep 7.4 13:21:33 10° ESE 13:24:36 16° E 13:27:41 10° NE visible
12 Sep 7.0 03:12:51 10° NW 03:16:38 20° W 03:20:24 10° SW visible
15 Sep 7.7 03:21:28 10° WNW 03:23:07 11° WNW 03:24:46 10° W visible
15 Sep 7.3 12:56:57 10° ESE 13:00:04 16° E 13:03:09 10° NE visible
16 Sep 7.2 02:48:18 10° NW 02:52:04 20° W 02:55:50 10° SW visible
